"Pseudo-MPEC" for P10OT5n

Created 2019 Jun 15 19:08:52 UT using Find_Orb

Click here for an explanation of pseudo-MPECs

 
 Astrometry: 
     P10OT5n  C2019 05 01s#g',KQpTQCZRyMH-YxPba]$!FgblOae-(l9AstrometryTw/b(,F51
     P10OT5n  C2019 05 01BZ`J\m)ZDEv[Jw[k`NuG9\O`u]7^@EBT+lkRv%PA!eEyGk9uf:hHF51
     P10OT5n  C2019 05 01C(w[@5[:Z#H?pmrFsAtredacted;BAMi2fR`T$i+_/@@#!C%tmslF51
     P10OT5n  C2019 05 019lI5@kVn4B4RNo8\s'gclickXjaxGuM7i]\l,qfQ'Ze#o=Q0g7kTF51
     P10OT5n  C2019 05 27o6pG]2BdI1d-H0m?wE!1d$(0Dlw5],^s+14Nu89:y;Jl[!k63V:mF52
     P10OT5n  C2019 05 278$l*'g.f;0KLxy!6m;5.heref\CA'YT]NHORnY.u!;pgBY@Cog__F52
     P10OT5n  C2019 05 27P%us-U`5W5A%IP$FptM7,W9UyR:O15H2l/ARxxA@#DpWHp'BC8)PF52
     P10OT5n  C2019 05 27R9O*-$pw(ijIuh!.X;XicOK,LiD0sPIH5V+S-gvwjqeE4N#),Fl5F52
     P10OT5n  C2019 06 02qRb;Qr4'u7pQ=!_$B[!2SAWAo4JU[pk,I-GY6[T'R_D-xIPZ$bgyF51
     P10OT5n  C2019 06 02tbn.f$C\IP_VQ95AuCH'\G4[poN[\NUxv=daIk`YByHdNkfUN3D/F51
     P10OT5n  C2019 06 09]bXfw::R86JVk10npNxJPRB).Jp,3Tnk@l_4xQ$Hao3qiBFhlv^DF51
     P10OT5n  C2019 06 09rg,v88/laTf-9+D$.+NA#F1ElSkB7i;Yv7qh!cO/)\#]BG;*-iK0F51
     P10OT5n  C2019 06 09i6/5iX[is:?d1.?N7O1NRnpS/`S%JBpYX_36t#c4v'y*G'vP8J\,F51
     P10OT5n  C2019 06 10@5ptPISEIZ#cmm]J0LG8K+9-'iyQK`K:Vyjfor%Sk$%(erOIw`uDF51
     P10OT5n  C2019 06 10x)ka14a9GhS#gx\@i`wHBb@reqX`;0;yU0i=(dn5A63#0V-$`Jy2F51
     P10OT5n  C2019 06 105pDPf.kecGOReU4)$JKn]($nFfrajKM%vrUbZ'explanationDHVF51
     P10OT5n KC2019 06 11Pg1eJiiu]XtX\GsLrGQHsa0SakwcG(P3G!V6P:b0kAl8:daI3Z0w291
     P10OT5n KC2019 06 11hrie[jGfWnA4*KN!4^lU*^IH1K5E\gg.V-CT/XI*l-Vt.DXTy8H;291
     P10OT5n KC2019 06 113i*3%qTg'a1(t:e%,L55Y8i2T\4rw;'iuSCbZ+sGHVf'b8BMOZq;291

Station data:
(291) LPL/Spacewatch II  (N31.961669 W111.599905)  US/Arizona.  Observers J.
   V. Scotti, R. S. McMillan. 1.8-m f/2.7 reflector + CCD.
(F51) Pan-STARRS 1, Haleakala  (N20.707235 W156.255910)  US/Hawaii.
   Observers N. Primak, A. Schultz, S. Watters, J. Thiel, T. Goggia. Measurer
   PS1 Science Consortium. 1.8-m Ritchey-Chrétien + CCD.
(F52) Pan-STARRS 2, Haleakala  (N20.707384 W156.255910)  US/Hawaii. 1.8-m
   Ritchey-Chrétien + CCD.

Orbital elements:  P10OT5n
   Perihelion 2020 May 13.540681 +/- 0.0808 TT = 12:58:34 (JD 2458983.040681)
Epoch 2019 Jun 11.0 TT = JDT 2458645.5   Earth MOID: 0.7204   AutoNEOCP
M 228.60542637 +/- 0.037            (J2000 ecliptic)
n   0.38927033 +/- 2.31e-5          Peri.  284.29205 +/- 0.023
a   1.85766975 +/- 7.34e-5          Node   109.19876 +/- 0.0039
e   0.1406927 +/- 7.01e-5           Incl.   23.48888 +/- 0.0027
P   2.53/924.79d           H 20.1   G  0.15   U  5.6  
q 1.59630905 +/- 7.6e-5    Q 2.11903045 +/- 0.00021
From 19 observations 2019 May 1-June 11; mean residual 0".27
Residuals in arcseconds: 
190501 F51  .02-  .04+    190527 F52  .03+  .14+    190610 F51  .22-  .22-    
190501 F51  .10+  .04+    190602 F51  .14+  .08-    190610 F51  .11-  .18-    
190501 F51  .14-  .10+    190602 F51  .04-  .10-    190611 291  .08+  .00     
190501 F51  .02+  .19-    190609 F51  .12-  .26-    190611 291  .60+  .70+    
190527 F52  .05-  .72+    190609 F51  .15-  .40-    190611 291  .18-  .53+    
190527 F52  .22-  .25-    190609 F51  .01+  .15-    
190527 F52  .30+  .26-    190610 F51  .20-  .42-    

Ephemerides (geocentric):
Date (UTC) HH   RA              Dec         delta   r     elong  mag " sig PA
---- -- -- --  -------------   -----------  ------ ------ -----  --- ---- ---
2019 06 15 19  16 34 01.716   +04 12 57.84  1.1055 2.0432 148.8 22.7 .236 154
2019 06 15 20  16 33 58.447   +04 12 26.91  1.1055 2.0431 148.8 22.7 .238 154
2019 06 15 21  16 33 55.180   +04 11 55.95  1.1056 2.0431 148.7 22.7 .239 154
2019 06 15 22  16 33 51.915   +04 11 24.95  1.1056 2.0430 148.7 22.7 .241 154
2019 06 15 23  16 33 48.651   +04 10 53.91  1.1057 2.0430 148.7 22.7 .242 153
2019 06 16 00  16 33 45.389   +04 10 22.84  1.1058 2.0429 148.7 22.7 .244 153
2019 06 16 01  16 33 42.129   +04 09 51.74  1.1058 2.0429 148.7 22.7 .245 153
2019 06 16 02  16 33 38.870   +04 09 20.60  1.1059 2.0428 148.6 22.7 .246 153
2019 06 16 03  16 33 35.613   +04 08 49.42  1.1059 2.0428 148.6 22.7 .248 153
2019 06 16 04  16 33 32.358   +04 08 18.21  1.1060 2.0427 148.6 22.7 .249 153
2019 06 16 05  16 33 29.105   +04 07 46.97  1.1060 2.0427 148.6 22.7 .251 153
2019 06 16 06  16 33 25.853   +04 07 15.69  1.1061 2.0426 148.6 22.7 .252 153
2019 06 16 07  16 33 22.603   +04 06 44.37  1.1061 2.0426 148.5 22.7 .254 153
2019 06 16 08  16 33 19.355   +04 06 13.02  1.1062 2.0425 148.5 22.7 .255 153
2019 06 16 09  16 33 16.109   +04 05 41.64  1.1062 2.0425 148.5 22.7 .257 153
2019 06 16 10  16 33 12.864   +04 05 10.22  1.1063 2.0424 148.5 22.7 .258 153
2019 06 16 11  16 33 09.621   +04 04 38.76  1.1064 2.0424 148.4 22.7 .260 152
2019 06 16 12  16 33 06.380   +04 04 07.27  1.1064 2.0424 148.4 22.7 .261 152
2019 06 16 13  16 33 03.141   +04 03 35.75  1.1065 2.0423 148.4 22.7 .263 152
2019 06 16 14  16 32 59.903   +04 03 04.19  1.1065 2.0423 148.4 22.7 .264 152
2019 06 16 15  16 32 56.667   +04 02 32.60  1.1066 2.0422 148.4 22.7 .266 152
2019 06 16 16  16 32 53.433   +04 02 00.97  1.1066 2.0422 148.3 22.7 .267 152
2019 06 16 17  16 32 50.201   +04 01 29.31  1.1067 2.0421 148.3 22.7 .269 152
2019 06 16 18  16 32 46.971   +04 00 57.62  1.1068 2.0421 148.3 22.7 .270 152
2019 06 16 19  16 32 43.743   +04 00 25.89  1.1068 2.0420 148.3 22.7 .272 152
2019 06 16 20  16 32 40.516   +03 59 54.12  1.1069 2.0420 148.3 22.7 .274 152
2019 06 16 21  16 32 37.291   +03 59 22.33  1.1069 2.0419 148.2 22.7 .275 152
2019 06 16 22  16 32 34.068   +03 58 50.49  1.1070 2.0419 148.2 22.7 .277 152
2019 06 16 23  16 32 30.847   +03 58 18.63  1.1071 2.0418 148.2 22.7 .278 151
2019 06 17 00  16 32 27.628   +03 57 46.72  1.1071 2.0418 148.2 22.7 .280 151
2019 06 17 01  16 32 24.410   +03 57 14.79  1.1072 2.0417 148.1 22.7 .281 151
2019 06 17 02  16 32 21.195   +03 56 42.82  1.1072 2.0417 148.1 22.7 .283 151
2019 06 17 03  16 32 17.981   +03 56 10.82  1.1073 2.0416 148.1 22.7 .284 151
2019 06 17 04  16 32 14.769   +03 55 38.78  1.1074 2.0416 148.1 22.7 .286 151
2019 06 17 05  16 32 11.560   +03 55 06.71  1.1074 2.0415 148.1 22.7 .287 151
2019 06 17 06  16 32 08.352   +03 54 34.60  1.1075 2.0415 148.0 22.7 .289 151
2019 06 17 07  16 32 05.145   +03 54 02.47  1.1076 2.0414 148.0 22.7 .291 151
2019 06 17 08  16 32 01.941   +03 53 30.29  1.1076 2.0414 148.0 22.7 .292 151
2019 06 17 09  16 31 58.739   +03 52 58.09  1.1077 2.0413 148.0 22.7 .294 151
2019 06 17 10  16 31 55.539   +03 52 25.85  1.1078 2.0413 147.9 22.7 .295 151
2019 06 17 11  16 31 52.340   +03 51 53.57  1.1078 2.0413 147.9 22.7 .297 151
2019 06 17 12  16 31 49.144   +03 51 21.27  1.1079 2.0412 147.9 22.7 .298 150
2019 06 17 13  16 31 45.949   +03 50 48.93  1.1080 2.0412 147.9 22.7 .300 150
2019 06 17 14  16 31 42.756   +03 50 16.55  1.1080 2.0411 147.9 22.7 .302 150
2019 06 17 15  16 31 39.566   +03 49 44.14  1.1081 2.0411 147.8 22.7 .303 150
2019 06 17 16  16 31 36.377   +03 49 11.70  1.1082 2.0410 147.8 22.7 .305 150
2019 06 17 17  16 31 33.190   +03 48 39.23  1.1082 2.0410 147.8 22.7 .306 150
2019 06 17 18  16 31 30.005   +03 48 06.72  1.1083 2.0409 147.8 22.7 .308 150